Terug naar catalogus

DELTA 1 R/B

ActiefLEO
NORAD 13778·ROCKET BODY·🇺🇸 United States

Gelanceerd Jan 26, 1983 vanaf Vandenberg Space Force Base

Loading…

Volgende Passages (komende 24 uur)

TLE

VersSource: Space-Track

Epoch: Sep 14, 2026, 14:20 UTC

1 13778U 83004B   26257.59778494  .00000070  00000-0  70696-4 0  9995
2 13778 100.0543 320.5907 0021286  40.2126 320.0610 14.09727070242323

Volg DELTA 1 R/B in realtime met AllMySat

Download on the App Store